Regional Weather Roundup
Issued by NWS

Home | Current Version | Previous Version | Text Only | Print | Product List | Glossary Off
Versions: 1 2 3 4 5 6 7 8 9 10 11 12 13 14 15 16 17 18 19 20 21 22 23 24 25 26 27 28 29 30 31 32 33 34 35 36 37 38 39 40 41 42 43 44 45 46 47 48 49 50

000
ASUS43 KDMX 021801
RWRIA

WEATHER ROUNDUP FOR IOWA
NATIONAL WEATHER SERVICE DES MOINES IA
1200 PM CST FRI DEC 02 2016

NOTE: "FAIR" INDICATES FEW OR NO CLOUDS BELOW 12,000 FEET WITH NO
SIGNIFICANT WEATHER AND/OR OBSTRUCTIONS TO VISIBILITY.

* - THESE STATIONS ARE NOT NWS STATIONS...THUS NOT UNDER NWS
QUALITY CONTROL.  THEY ALSO DO NOT REPORT WEATHER SUCH
AS PRECIPITATION OR FOG.

IAZ001>003-012>014-020>022-031>034-043>046-021900-
   NORTHWEST IOWA

CITY           SKY/WX    TMP DP  RH WIND       PRES   REMARKS
CARROLL *      CLOUDY    37  32  81 NW5       30.24F WCI  34
CHEROKEE *     CLOUDY    35  31  85 N6        30.27R WCI  30
DENISON *      CLOUDY    37  32  81 CALM      30.23F
LE MARS *      CLOUDY    34  30  86 N5        30.28S WCI  30
ORANGE CITY *  CLOUDY    34  28  80 CALM      30.26S
SHELDON *      CLOUDY    34  28  80 NW8       30.25S WCI  27
SIOUX CITY     CLOUDY    39  31  72 NW7       30.28F WCI  34
6HR MIN TEMP:  33; 6HR MAX TEMP:  39;

SPENCER        CLOUDY    34  24  67 NW17      30.25S WCI  23
6HR MIN TEMP:  31; 6HR MAX TEMP:  35;

STORM LAKE *     N/A     34  30  86 NW6       30.25S WCI  29
$$

IAZ055>058-069>071-079>083-090>094-021900-
   SOUTHWEST IOWA

CITY           SKY/WX    TMP DP  RH WIND       PRES   REMARKS
ATLANTIC *     CLOUDY    36  30  80 N6        30.26S HAZE    WCI  31
AUDUBON *      CLOUDY    36  30  80 CALM      30.26S
CLARINDA *       N/A     39  32  75 NW3       30.30
COUNCIL BLFS * CLOUDY    37  30  75 VRB3      30.26S
CRESTON *      PTSUNNY   39  32  75 NW3       30.26S
HARLAN  *      CLOUDY    36  32  87 NW7       30.29F WCI  30
LAMONI         MOSUNNY   40  30  67 NW7       30.26S
6HR MIN TEMP:  26; 6HR MAX TEMP:  42;

RED OAK *      PTSUNNY   39  30  70 CALM      30.28S
SHENANDOAH *   MOSUNNY   41  32  70 W5        30.30R
$$

IAZ047>049-059>061-072>074-084-021900-
   CENTRAL IOWA

CITY           SKY/WX    TMP DP  RH WIND       PRES   REMARKS
AMES           CLOUDY    38  32  79 NW7       30.26F WCI  33
6HR MIN TEMP:  35; 6HR MAX TEMP:  38;

ANKENY *       CLOUDY    37  34  87 N9        30.27S WCI  31
BOONE *        CLOUDY    37  32  81 N6        30.24F WCI  33
CHARITON *       N/A     41  30  65 NW9       30.25S
DES MOINES     CLOUDY    41  31  67 N6        30.26F
6HR MIN TEMP:  35; 6HR MAX TEMP:  41;

GRINNELL*      CLOUDY    37  31  77 NW10      30.25S WCI  30
KNOXVILLE *    CLOUDY    39  30  70 CALM      30.24F
MARSHALLTOWN   CLOUDY    36  31  82 W12       30.25S WCI  28
6HR MIN TEMP:  34; 6HR MAX TEMP:  36;

NEWTON *       CLOUDY    37  32  81 NW9       30.24F WCI  31
PELLA *        CLOUDY    39  32  75 NW7       30.27S WCI  34
PERRY *        CLOUDY    39  34  82 NW3       30.25F
$$

IAZ004>006-015-016-023>025-035-036-021900-
   NORTH CENTRAL IOWA

CITY           SKY/WX    TMP DP  RH WIND       PRES   REMARKS
ALGONA *       CLOUDY    34  25  69 NW9       30.25R WCI  26
CLARION *      CLOUDY    34  30  86 NW10      30.26R WCI  26
ESTHERVILLE    CLOUDY    31  26  82 NW12      30.25R WCI  22
6HR MIN TEMP:  30; 6HR MAX TEMP:  33;

FORT DODGE *   CLOUDY    36  28  75 NW7       30.27R WCI  30
MASON CITY     CLOUDY    31  23  72 NW10      30.26R WCI  22
6HR MIN TEMP:  30; 6HR MAX TEMP:  31;

WEBSTER CITY * CLOUDY    36  32  87 NW8       30.24S WCI  29
IOWA FALLS *   CLOUDY    35  30  79 NW9       30.26R WCI  28
$$

IAZ007>011-017>019-026>030-037>042-050>054-066-021900-
   NORTHEAST IOWA

CITY           SKY/WX    TMP DP  RH WIND       PRES   REMARKS
CEDAR RAPIDS   CLOUDY    37  30  75 NW14      30.23S WCI  28
6HR MIN TEMP:  34; 6HR MAX TEMP:  37;

CHARLES CITY * CLOUDY    32  27  80 NW8       30.24R WCI  25
CLINTON *      CLOUDY    39  32  76 W15       30.21S WCI  31
DECORAH *      CLOUDY    32  25  74 N9        30.20R WCI  24
DUBUQUE        CLOUDY    34  27  75 NW10      30.20S WCI  26
6HR MIN TEMP:  32; 6HR MAX TEMP:  36;

MONTICELLO *   CLOUDY    37  27  65 NW13      30.22R WCI  29
OELWEIN *      CLOUDY    34  27  75 NW12      30.23S WCI  25
WATERLOO       CLOUDY    34  25  69 NW14      30.24R WCI  25
6HR MIN TEMP:  33; 6HR MAX TEMP:  35;

$$

IAZ064-065-067-068-078-021900-
   EAST CENTRAL IOWA

CITY           SKY/WX    TMP DP  RH WIND       PRES   REMARKS
DAVENPORT      CLOUDY    39  30  70 NW14      30.22S WCI  31
6HR MIN TEMP:  35; 6HR MAX TEMP:  40;

IOWA CITY      CLOUDY    40  27  59 NW12      30.26S WCI  33
6HR MIN TEMP:  36; 6HR MAX TEMP:  40;

MUSCATINE *    PTSUNNY   41  30  65 NW13      30.25S
QUAD CITIES    CLOUDY    41  32  70 NW10      30.22S
6HR MIN TEMP:  37; 6HR MAX TEMP:  41;

$$

IAZ062-063-075>077-085>089-095>099-021900-
   SOUTHEAST IOWA

CITY           SKY/WX    TMP DP  RH WIND       PRES   REMARKS
BURLINGTON     CLOUDY    41  30  65 VRB6      30.24S
6HR MIN TEMP:  36; 6HR MAX TEMP:  42;

FAIRFIELD *    CLOUDY    41  30  65 NW10      30.25S
FORT MADISON * CLOUDY    43  32  65 W8        30.25S
KEOKUK *       PTSUNNY   45  32  61 VRB7      30.24F
OSKALOOSA *    CLOUDY    39  31  73 NW8       30.26S WCI  33
CENTERVILLE *  PTSUNNY   41  32  70 NW6       30.27S
OTTUMWA        CLOUDY    40  31  70 NW9       30.26R WCI  34
6HR MIN TEMP:  35; 6HR MAX TEMP:  41;

WASHINGTON *   CLOUDY    39  32  75 NW13      30.26S WCI  32
$$

ABBREVIATIONS USED IN REMARKS
   TC - TEMPERATURES IN CELSIUS
  WCI - WIND CHILL INDEX
   HX - HEAT INDEX
  VSB - VISIBILITY
$$




USA.gov is the U.S. government's official web portal to all federal, state and local government web resources and services.